| time (UTC) | temp F | wind direction | speed knots | gust knots | rain 1hr in | rain 24hr in | rain mn in | humidity % | barometer mb |
| 20260506160003 | 63 | 217 | 0.0 | 4.3 | 0.05 | 0.08 | 0.08 | 85 | 1015.9 |
| 20260506155003 | 63 | 157 | 0.9 | 2.6 | 0.05 | 0.08 | 0.08 | 85 | 1015.6 |
| 20260506154003 | 63 | 181 | 0.9 | 7.0 | 0.05 | 0.08 | 0.08 | 85 | 1017.5 |
| 20260506153003 | 63 | 202 | 1.7 | 2.6 | 0.02 | 0.06 | 0.06 | 85 | 1017.7 |
| 20260506152004 | 63 | 202 | 0.9 | 2.6 | 0.06 | 0.06 | 0.06 | 85 | 1016.9 |
| 20260506141003 | 63 | 211 | 2.6 | 5.2 | 0.00 | 0.00 | 0.00 | 84 | 1016.4 |
| 20260506140003 | 63 | 211 | 1.7 | 6.1 | 0.00 | 0.00 | 0.00 | 84 | 1016.4 |
| 20260506135004 | 63 | 223 | 4.3 | 7.0 | 0.00 | 0.00 | 0.00 | 84 | 1016.3 |
| 20260506134003 | 63 | 213 | 3.5 | 7.0 | 0.00 | 0.00 | 0.00 | 84 | 1016.2 |
| 20260506133003 | 63 | 208 | 2.6 | 5.2 | 0.00 | 0.00 | 0.00 | 84 | 1016.3 |
| 20260506132004 | 63 | 213 | 1.7 | 5.2 | 0.00 | 0.00 | 0.00 | 85 | 1016.2 |
| 20260506110003 | 61 | 203 | 1.7 | 2.6 | 0.00 | 0.00 | 0.00 | 82 | 1015.3 |
| 20260506105003 | 62 | 204 | 1.7 | 2.6 | 0.00 | 0.00 | 0.00 | 82 | 1015.6 |
| 20260506104003 | 62 | 204 | 1.7 | 2.6 | 0.00 | 0.00 | 0.00 | 80 | 1015.4 |
| 20260506103003 | 62 | 204 | 0.0 | 0.0 | 0.00 | 0.00 | 0.00 | 80 | 1015.2 |
| 20260506102002 | 61 | 205 | 0.0 | 0.0 | 0.00 | 0.00 | 0.00 | 78 | 1015.2 |
| 20260506101003 | 61 | 205 | 0.0 | 0.0 | 0.00 | 0.00 | 0.00 | 78 | 1015.0 |
| 20260506100002 | 61 | 205 | 0.0 | 0.0 | 0.00 | 0.00 | 0.00 | 79 | 1014.9 |
| 20260506095002 | 61 | 205 | 0.0 | 0.0 | 0.00 | 0.00 | 0.00 | 79 | 1014.7 |
| 20260506094003 | 61 | 205 | 0.0 | 0.0 | 0.00 | 0.00 | 0.00 | 79 | 1014.7 |
| 20260506093003 | 62 | 205 | 0.0 | 0.0 | 0.00 | 0.00 | 0.00 | 78 | 1014.5 |
| 20260506092003 | 62 | 205 | 0.0 | 0.0 | 0.00 | 0.00 | 0.00 | 77 | 1014.6 |
| 20260506091003 | 62 | 205 | 0.0 | 0.0 | 0.00 | 0.00 | 0.00 | 77 | 1014.2 |
| 20260506073003 | 63 | 205 | 0.0 | 1.7 | 0.00 | 0.00 | 0.00 | 71 | 1015.1 |
| 20260506072003 | 63 | 205 | 0.9 | 1.7 | 0.00 | 0.00 | 0.00 | 71 | 1014.9 |
| 20260506071002 | 64 | 205 | 0.0 | 5.2 | 0.00 | 0.00 | 0.00 | 68 | 1014.9 |
| 20260506051003 | 63 | 210 | 0.0 | 0.0 | 0.00 | 0.00 | 0.00 | 70 | 1016.1 |
| 20260506034003 | 62 | 204 | 1.7 | 7.0 | 0.00 | 0.00 | 0.00 | 69 | 1016.1 |
| 20260506033004 | 62 | 172 | 0.0 | 0.0 | 0.00 | 0.00 | 0.00 | 71 | 1016.1 |
| 20260506032003 | 61 | 172 | 0.0 | 0.0 | 0.00 | 0.00 | 0.00 | 76 | 1016.3 |
| 20260506031003 | 62 | 172 | 0.0 | 0.0 | 0.00 | 0.00 | 0.00 | 75 | 1016.4 |
| 20260506030003 | 62 | 172 | 0.0 | 0.0 | 0.00 | 0.00 | 0.00 | 75 | 1016.5 |
| 20260506025003 | 62 | 173 | 0.0 | 0.0 | 0.00 | 0.00 | 0.00 | 73 | 1016.3 |
| 20260506024003 | 61 | 172 | 0.0 | 0.0 | 0.00 | 0.00 | 0.00 | 71 | 1016.0 |
| 20260506023003 | 61 | 173 | 0.0 | 0.0 | 0.00 | 0.00 | 0.00 | 74 | 1016.1 |
| 20260506022003 | 61 | 173 | 0.0 | 0.0 | 0.00 | 0.00 | 0.00 | 72 | 1016.3 |
| 20260506021003 | 61 | 172 | 0.0 | 0.0 | 0.00 | 0.00 | 0.00 | 73 | 1016.2 |
| 20260506020003 | 61 | 172 | 0.0 | 0.0 | 0.00 | 0.00 | 0.00 | 72 | 1016.1 |
| 20260506015003 | 61 | 172 | 0.0 | 0.0 | 0.00 | 0.00 | 0.00 | 73 | 1016.0 |
| 20260506014003 | 61 | 172 | 0.0 | 0.0 | 0.00 | 0.00 | 0.00 | 72 | 1015.9 |
| 20260506013003 | 61 | 172 | 0.0 | 0.0 | 0.00 | 0.00 | 0.00 | 71 | 1015.7 |
| 20260506012003 | 62 | 172 | 0.0 | 0.0 | 0.00 | 0.00 | 0.00 | 70 | 1015.7 |
| 20260506011004 | 63 | 172 | 0.0 | 0.0 | 0.00 | 0.00 | 0.00 | 67 | 1015.7 |
| 20260506010003 | 64 | 172 | 0.0 | 0.0 | 0.00 | 0.00 | 0.00 | 65 | 1015.6 |
| 20260506005003 | 65 | 172 | 0.0 | 1.7 | 0.00 | 0.00 | 0.00 | 63 | 1015.6 |
| 20260506004003 | 66 | 172 | 0.0 | 0.0 | 0.00 | 0.00 | 0.00 | 62 | 1015.7 |
| 20260506003003 | 67 | 172 | 0.0 | 0.0 | 0.00 | 0.00 | 0.00 | 61 | 1015.8 |
| 20260506002004 | 67 | 172 | 0.0 | 1.7 | 0.00 | 0.00 | 0.00 | 59 | 1015.6 |
| 20260506001004 | 68 | 172 | 0.0 | 0.0 | 0.00 | 0.00 | 0.00 | 57 | 1015.5 |
| 20260506000004 | 69 | 172 | 0.0 | 0.9 | 0.00 | 0.00 | 0.00 | 56 | 1015.6 |
| 20260505235003 | 70 | 176 | 0.0 | 0.0 | 0.00 | 0.00 | 0.00 | 57 | 1015.6 |
| 20260505234003 | 70 | 223 | 0.0 | 0.0 | 0.00 | 0.00 | 0.00 | 56 | 1015.5 |
| 20260505233003 | 71 | 292 | 0.0 | 0.9 | 0.00 | 0.00 | 0.00 | 53 | 1015.4 |
| 20260505232003 | 71 | 270 | 0.0 | 0.9 | 0.00 | 0.00 | 0.00 | 52 | 1015.7 |
| 20260505231003 | 72 | 270 | 0.9 | 2.6 | 0.00 | 0.00 | 0.00 | 51 | 1015.8 |
| 20260505230003 | 72 | 271 | 0.0 | 1.7 | 0.00 | 0.00 | 0.00 | 51 | 1015.7 |
| 20260505225003 | 72 | 271 | 0.9 | 2.6 | 0.00 | 0.00 | 0.00 | 48 | 1015.7 |
| 20260505214003 | 75 | 162 | 2.6 | 10.4 | 0.00 | 0.00 | 0.00 | 46 | 1015.7 |
| 20260505213003 | 76 | 188 | 2.6 | 6.1 | 0.00 | 0.00 | 0.00 | 45 | 1015.7 |
| 20260505212003 | 76 | 187 | 4.3 | 8.7 | 0.00 | 0.00 | 0.00 | 44 | 1015.6 |
| 20260505211003 | 75 | 202 | 4.3 | 8.7 | 0.00 | 0.00 | 0.00 | 44 | 1015.8 |
| 20260505210003 | 75 | 202 | 4.3 | 14.8 | 0.00 | 0.00 | 0.00 | 41 | 1016.0 |
| 20260505205003 | 76 | 187 | 5.2 | 13.0 | 0.00 | 0.00 | 0.00 | 42 | 1015.7 |
| 20260505204003 | 77 | 220 | 5.2 | 11.3 | 0.00 | 0.00 | 0.00 | 43 | 1015.8 |
| 20260505203003 | 77 | 210 | 4.3 | 11.3 | 0.00 | 0.00 | 0.00 | 45 | 1015.7 |
| 20260505202003 | 77 | 192 | 4.3 | 8.7 | 0.00 | 0.00 | 0.00 | 45 | 1015.9 |
| 20260505201003 | 76 | 198 | 5.2 | 13.0 | 0.00 | 0.00 | 0.00 | 44 | 1016.1 |
| 20260505200004 | 77 | 180 | 6.1 | 10.4 | 0.00 | 0.00 | 0.00 | 42 | 1016.1 |
| 20260505195003 | 77 | 205 | 5.2 | 13.0 | 0.00 | 0.00 | 0.00 | 43 | 1016.2 |
| 20260505183003 | 74 | 189 | 2.6 | 13.0 | 0.00 | 0.00 | 0.00 | 46 | 1017.0 |
| 20260505182003 | 74 | 223 | 5.2 | 11.3 | 0.00 | 0.00 | 0.00 | 46 | 1017.3 |
| 20260505181004 | 74 | 225 | 7.0 | 13.0 | 0.00 | 0.00 | 0.00 | 47 | 1017.4 |
| 20260505180003 | 73 | 217 | 5.2 | 13.0 | 0.00 | 0.00 | 0.00 | 50 | 1017.5 |
| 20260505175003 | 73 | 214 | 6.1 | 13.0 | 0.00 | 0.00 | 0.00 | 51 | 1017.8 |
| 20260505174003 | 73 | 214 | 5.2 | 10.4 | 0.00 | 0.00 | 0.00 | 51 | 1018.0 |
| 20260505163003 | 71 | 223 | 6.1 | 13.0 | 0.00 | 0.00 | 0.00 | 49 | 1018.3 |
| 20260505162003 | 71 | 214 | 7.0 | 17.4 | 0.00 | 0.00 | 0.00 | 50 | 1018.4 |